This is the latest recevied weather packets stored in our database for station/object 9W2CHF-4. If no packets are shown the sender has not sent any weather packets the latest 10 day(s).
| Time | Temp. | Humidity | Pressure | Rain* | Wind** | Luminosity | Snow |
|---|---|---|---|---|---|---|---|
| 1777845208 | 31.67° C | 79% | 1009.9 hPa | - | - | - | - |
| 1777844308 | 31.67° C | 81% | 1009.9 hPa | - | - | - | - |
| 1777843408 | 31.67° C | 80% | 1009.8 hPa | - | - | - | - |
| 1777842508 | 31.67° C | 79% | 1009.9 hPa | - | - | - | - |
| 1777839811 | 31.67° C | 80% | 1009.9 hPa | - | - | - | - |
| 1777837111 | 32.22° C | 80% | 1009.9 hPa | - | - | - | - |
| 1777835311 | 32.22° C | 80% | 1010 hPa | - | - | - | - |
| 1777827210 | 32.22° C | 82% | 1010.7 hPa | - | - | - | - |
| 1777826310 | 32.22° C | 82% | 1010.7 hPa | - | - | - | - |
| 1777824510 | 32.78° C | 80% | 1010.8 hPa | - | - | - | - |
| 1777823610 | 32.78° C | 81% | 1010.9 hPa | - | - | - | - |
| 1777806507 | 32.78° C | 75% | 1008.9 hPa | - | - | - | - |
| 1777805607 | 32.78° C | 74% | 1008.6 hPa | - | - | - | - |
| 1777804707 | 33.33° C | 74% | 1008.5 hPa | - | - | - | - |
| 1777803807 | 33.33° C | 70% | 1008.3 hPa | - | - | - | - |
| 1777802907 | 33.33° C | 63% | 1008.4 hPa | - | - | - | - |
| 1777801106 | 33.33° C | 65% | 1008.4 hPa | - | - | - | - |
| 1777800206 | 33.33° C | 71% | 1008.1 hPa | - | - | - | - |
| 1777799306 | 33.33° C | 72% | 1008.1 hPa | - | - | - | - |
| 1777797509 | 33.89° C | 69% | 1008 hPa | - | - | - | - |
| 1777796609 | 33.89° C | 67% | 1008.2 hPa | - | - | - | - |
| 1777795709 | 33.89° C | 66% | 1008.1 hPa | - | - | - | - |
| 1777794809 | 33.33° C | 58% | 1008.1 hPa | - | - | - | - |
| 1777793909 | 33.33° C | 61% | 1008.5 hPa | - | - | - | - |
| 1777793009 | 33.33° C | 66% | 1008.7 hPa | - | - | - | - |
* Rain since midnight (hover to see other rain measurements)
** Current wind speed in m/s (hover to see current wind gust speed)